Regional Weather Roundup
Issued by NWS

Home | Current Version | Previous Version | Text Only | Print | Product List | Glossary Off
Versions: 1 2 3 4 5 6 7 8 9 10 11 12 13 14 15 16 17 18 19 20 21 22 23 24 25 26 27 28 29 30 31 32 33 34 35 36 37 38 39 40 41 42 43 44 45 46 47 48 49 50

000
ASUS43 KMKX 010721
RWRWI

WISCONSIN REGIONAL WEATHER ROUNDUP
NATIONAL WEATHER SERVICE MILWAUKEE/SULLIVAN WI
200 AM CDT SUN MAY 01 2016

NOTE: "FAIR" INDICATES FEW OR NO CLOUDS BELOW 12,000 FEET WITH NO
SIGNIFICANT WEATHER AND/OR OBSTRUCTIONS TO VISIBILITY.

WIZ001-002-006>008-014>016-023>028-010800-
NORTHWEST WISCONSIN

CITY           SKY/WX    TMP DP  RH WIND       PRES   REMARKS
SUPERIOR ARPT  CLOUDY    38  30  72 NE7       30.23S WCI  33
ASHLAND        CLOUDY    36  33  89 NE9       30.21S WCI  29
HAYWARD        CLOUDY    36  31  82 N10       30.17S WCI  28
SIREN          CLOUDY    40  31  72 NE7       30.16F WCI  35
CUMBERLAND     CLOUDY    39  30  70 NE7       30.13S WCI  34
RICE LAKE      CLOUDY    42  32  67 N12       30.14F
CHETEK         CLOUDY    43  32  65 NE7       30.12S
LADYSMITH      PTCLDY    41  31  68 NE8       30.14F
EAU CLAIRE     CLOUDY    47  33  58 NE12      30.09S
MENOMONIE      CLOUDY    47  33  57 NE9       30.10S
NEW RICHMOND   CLOUDY    42  32  67 NE8       30.12S
OSCEOLA        CLOUDY    42  32  68 N7        30.16S
$$

WIZ003>005-009-010-017-018-010800-
NORTH CENTRAL WISCONSIN

CITY           SKY/WX    TMP DP  RH WIND       PRES   REMARKS
MANITOWISH WTR CLOUDY    36  34  93 NE7       30.14S WCI  31
ARBOR VITAE    PTCLDY    39  35  84 N5        30.13S
WOODRUFF       PTCLDY    39  35  84 N5        30.13S
RHINELANDER    PTCLDY    37  31  78 N3        30.12F
EAGLE RIVER    PTCLDY    35  30  85 N6        30.12S WCI  29
LAND O LAKES   CLOUDY    35  33  92 N7        30.14S WCI  29
PHILLIPS       PTCLDY    37  32  81 NE7       30.13F WCI  32
TOMAHAWK       CLOUDY    39  31  75 NE7       30.12F WCI  34
MEDFORD        CLOUDY    42  31  66 NE13      30.08S
MERRILL        CLOUDY    43  31  63 NE6       30.10S
$$

WIZ029-030-035-036-043>047-010800-
CENTRAL WISCONSIN

CITY           SKY/WX    TMP DP  RH WIND       PRES   REMARKS
WAUSAU         CLOUDY    47  29  49 NE7       30.07S
MOSINEE        CLOUDY    45  30  57 NE9       30.08F
MARSHFIELD     CLOUDY    47  30  51 NE8       30.06S
STEVENS POINT  CLOUDY    44  29  57 NE8       30.07S
WAUPACA        LGT RAIN  48  32  54 NE7       30.06F
WAUTOMA        NOT AVBL
WISC RAPIDS    CLOUDY    48  30  49 NE9       30.07S
CAMP DOUGLAS   CLOUDY    45  43  93 E14       30.04S
$$

WIZ011>013-019>022-031-037>040-048>050-010800-
NORTHEAST WISCONSIN

CITY           SKY/WX    TMP DP  RH WIND       PRES   REMARKS
ANTIGO         CLOUDY    40  32  72 NE12      30.08F WCI  33
SHAWANO        CLOUDY    46  33  59 NE12      30.08S
OCONTO         CLOUDY    43  34  69 N8        30.06F
STURGEON BAY   CLOUDY    43  34  70 N7        30.08F
GREEN BAY      LGT RAIN  44  36  73 NE21      30.07S
MANITOWOC      LGT RAIN  42  37  82 NE10G20   30.04F
APPLETON       CLOUDY    43  32  65 NE12      30.04S
CLINTONVILLE   CLOUDY    45  32  61 NE7       30.07S
OSHKOSH        CLOUDY    44  37  76 NE16      30.03F
$$

WIZ032>034-041-042-053>061-010800-
SOUTHWEST WISCONSIN

CITY           SKY/WX    TMP DP  RH WIND       PRES   REMARKS
LA CROSSE      CLOUDY    45  40  82 N7        30.05F
SPARTA         CLOUDY    45  39  81 NE9       30.05F
VIROQUA        CLOUDY    43  39  88 NE8       30.02F
BOSCOBEL       CLOUDY    46  40  79 NE6       30.01S
PRAIRIE DU CHI CLOUDY    45  39  79 N3        30.00S
PLATTEVILLE    CLOUDY    44  43  96 NE16      29.96S
$$

WIZ056-057-062-063-064-067-068-010800-
SOUTH CENTRAL WISCONSIN

CITY           SKY/WX    TMP DP  RH WIND       PRES   REMARKS
REEDSBURG      CLOUDY    44  38  81 NE8       30.02S
BARABOO/DELLS  CLOUDY    42  39  88 NE8       30.02S
LONE ROCK      CLOUDY    45  39  79 NE8       30.01S
MINERAL POINT  CLOUDY    43  43 100 NE12G17   29.97S
MADISON        CLOUDY    44  40  85 NE13      29.99S
MIDDLETON      CLOUDY    45  42  88 NE10      30.00R
WATERTOWN      CLOUDY    44  44 100 NE12G17   29.98S
MONROE         CLOUDY    43  41  93 NE13      29.95S FOG
JANESVILLE     CLOUDY    45  45 100 NE7       29.95R FOG
$$

WIZ051-052-058>065-066-070>072-010800-
SOUTHEAST WISCONSIN

CITY           SKY/WX    TMP DP  RH WIND       PRES   REMARKS
MILWAUKEE      CLOUDY    43  41  93 NE15      29.98R
WAUKESHA       CLOUDY    43  41  93 NE9       29.99R
MILWAUKEE/TIMM CLOUDY    43  37  81 NE14G20   29.98S
RACINE         LGT RAIN  43  41  93 NE15      29.98S FOG
BURLINGTON     CLOUDY    42  42  99 NE8       29.95S FOG
KENOSHA        LGT RAIN  44  42  93 NE13G23   29.95R FOG
FOND DU LAC    CLOUDY    45  37  73 NE15      30.02F
SHEBOYGAN      CLOUDY    42  37  82 N13       30.01F
WEST BEND      DRIZZLE   41  39  93 N5        30.00S
JUNEAU         CLOUDY    42  39  92 N10       30.00F
$$

LSZ147-162-010800-
LAKE SUPERIOR

STATION/POSITION TIME  TEMP    WIND        PRES    WAVE
                       AIR SEA DIR/SP/G            HT/PER
                 (UTC) (F)     (DEG/KT/KT) (MB)    (FT/S)
W MID LAKE BUOY  0650   39 37   20/ 12/ 14 1024.0F   2/ 4
DEVILS ISLAND    0700   39      50/ 12/ 14 1024.2F
PORT WING        0600   38      40/  8/  9 1023.7S
SAXON HARBOR     0640   39      50/  7/  8 1022.4S
$$

LMZ867-665-643>646-010800-
LAKE MICHIGAN

STATION/POSITION TIME  TEMP    WIND        PRES    WAVE
                       AIR SEA DIR/SP/G            HT/PER
                 (UTC) (F)     (DEG/KT/KT) (MB)    (FT/S)
CHAMBERS ISLAND  0640   42     360/ 11/ 14 1019.0S
N MID LAKE BUOY  0650   40 38   30/ 12/ 14 1018.3F   2/ 4
NORTHPORT PIER   0600   42     360/ 11/ 14 1018.3F
ALGOMA LAKESHORE 0615           50/ 17/ 24   N/A
KEWAUNEE LAKESHO 0600   42      20/  8/ 10 1017.7R
SHEBOYGAN LAKESH 0700   42      10/ 19/ 20 1016.9F
PORT WASHINGTON  0600   45      30/ 11/ 17 1016.9S
S MID LAKE BUOY  0650   42 40   50/ 14/ 16 1013.3F   3/ 4
KENOSHA   LAKESH 0700   42      20/ 16/ 19 1014.2R
$$

TC  - TEMPERATURE IN CELSIUS
VSB - VISIBILITY IN STATUTE MILES
WCI - WIND CHILL INDEX
HX  - HEAT INDEX





USA.gov is the U.S. government's official web portal to all federal, state and local government web resources and services.